Location: Ab? ar R?sh Ba?r?
(24.1861°N, 32.8847°E)
Time: 11:08:50
(UTC+00:00)

Okean O Rocket - Pass Details

Date: 24 October 2021
Orbit: 623 x 643 km, 98.2° (Epoch: 04 December)

Event Time Altitude Azimuth Distance (km) Brightness Sun altitude
Rises 15:51:00 0° 152° (SSE) 2,888 4.8 -9.0°
Reaches altitude 10° 15:53:16 10° 144° (SE) 1,985 3.9 -9.5°
Maximum altitude 15:57:19 40° 75° (ENE) 915 2.0 -10.4°
Drops below altitude 10° 16:01:22 10° 5° (N) 1,996 4.0 -11.3°
Sets 16:03:40 0° 358° (N) 2,907 4.9 -11.9°
